Location: Be?i?
(36.9044°N, 30.1006°E)
Time: 10:48:52
(UTC+00:00)

Cosmos 44 Rocket - Pass Details

Date: 05 August 2024
Orbit: 649 x 733 km, 65.1° (Epoch: 08 September)

Event Time Altitude Azimuth Distance (km) Brightness Sun altitude
Rises 17:56:33 0° 213° (SSW) 3,143 6.7 -10.6°
Reaches altitude 10° 17:58:55 10° 215° (SW) 2,220 6.0 -11.0°
Maximum altitude 18:04:00 75° 300° (WNW) 751 3.6 -11.9°
Drops below altitude 10° 18:09:02 10° 26° (NNE) 2,196 6.0 -12.7°
Sets 18:11:23 0° 28° (NNE) 3,106 6.7 -13.1°
